This is the latest recevied weather packets stored in our database for station/object K4GSL. If no packets are shown the sender has not sent any weather packets the latest 10 day(s).
| Time | Temp. | Humidity | Pressure | Rain* | Wind** | Luminosity | Snow |
|---|---|---|---|---|---|---|---|
| 1778079599 | 11.67° C | 99% | 1024.7 hPa | 0 mm | - | 107 W/m² | - |
| 1778079296 | 11.67° C | 99% | 1024.6 hPa | 0 mm | - | 99 W/m² | - |
| 1778078994 | 11.11° C | 99% | 1024.8 hPa | 0 mm | - | 81 W/m² | - |
| 1778078690 | 11.11° C | 99% | 1024.8 hPa | 0 mm | - | 80 W/m² | - |
| 1778078388 | 10.56° C | 99% | 1024.7 hPa | 0 mm | - | 57 W/m² | - |
| 1778078085 | 10.56° C | 99% | 1024.9 hPa | 0 mm | - | 42 W/m² | - |
| 1778077784 | 10° C | 99% | 1025.2 hPa | 0 mm | - | 35 W/m² | - |
| 1778077481 | 10° C | 99% | 1025 hPa | 0 mm | - | 32 W/m² | - |
| 1778077179 | 10° C | 99% | 1024.9 hPa | 0 mm | - | 27 W/m² | - |
| 1778076876 | 10° C | 99% | 1024.9 hPa | 0 mm | - | 25 W/m² | - |
| 1778076575 | 9.44° C | 99% | 1025 hPa | 0 mm | - | 20 W/m² | - |
| 1778076271 | 9.44° C | 99% | 1024.8 hPa | 0 mm | - | 5 W/m² | - |
| 1778075968 | 9.44° C | 99% | 1024.7 hPa | 0 mm | - | 5 W/m² | - |
| 1778075666 | 9.44° C | 99% | 1024.8 hPa | 0 mm | - | 5 W/m² | - |
| 1778075361 | 9.44° C | 99% | 1024.6 hPa | 0 mm | - | 5 W/m² | - |
| 1778075058 | 9.44° C | 99% | 1024.6 hPa | 0 mm | - | 5 W/m² | - |
| 1778074755 | 9.44° C | 99% | 1024.7 hPa | 0 mm | - | 5 W/m² | - |
| 1778074452 | 9.44° C | 99% | 1024.7 hPa | 0 mm | - | 5 W/m² | - |
| 1778074148 | 8.89° C | 99% | 1024.8 hPa | 0 mm | - | 3 W/m² | - |
| 1778073845 | 8.89° C | 99% | 1024.5 hPa | 0 mm | - | 3 W/m² | - |
| 1778073543 | 8.89° C | 99% | 1024.5 hPa | 0 mm | - | 4 W/m² | - |
| 1778073239 | 9.44° C | 99% | 1024.5 hPa | 0 mm | - | 2 W/m² | - |
| 1778072936 | 9.44° C | 99% | 1024.7 hPa | 0 mm | - | 1 W/m² | - |
| 1778072633 | 9.44° C | 99% | 1024.5 hPa | 0 mm | - | 1 W/m² | - |
| 1778072331 | 9.44° C | 99% | 1024.6 hPa | 0 mm | - | 0 W/m² | - |
* Rain latest hour (hover to see other rain measurements)
** Current wind speed in m/s (hover to see current wind gust speed)